Time,TemperatureF,DewpointF,PressureIn,WindDirection,WindDirectionDegrees,WindSpeedMPH,WindSpeedGustMPH,Humidity,HourlyPrecipIn,Conditions,Clouds,dailyrainin,SoftwareType,DateUTC
2013-07-07 00:11:00,66.0,53.0,-100.00,ESE,120,1.0,5.0,62,-99.99,,,-99.99,,2013-07-07 07:11:00,
2013-07-07 01:10:00,60.0,53.0,-100.00,SSE,148,0.0,1.0,77,-99.99,,,-99.99,,2013-07-07 08:10:00,
2013-07-07 04:11:00,56.0,53.0,-100.00,ENE,75,0.0,1.0,89,-99.99,,,-99.99,,2013-07-07 11:11:00,
2013-07-07 05:10:00,54.0,54.0,-100.00,East,90,1.0,2.0,100,-99.99,,,-99.99,,2013-07-07 12:10:00,
2013-07-07 05:12:00,55.0,53.0,-100.00,East,100,1.0,2.0,92,-99.99,,,-99.99,,2013-07-07 12:12:00,
2013-07-07 06:20:00,53.0,-99.9,-100.00,East,79,0.0,1.0,-999,-99.99,,,-99.99,,2013-07-07 13:20:00,
2013-07-07 07:10:00,54.0,-99.9,-100.00,East,79,0.0,1.0,-999,-99.99,,,-99.99,,2013-07-07 14:10:00,
2013-07-07 07:12:00,53.0,-99.9,-100.00,East,79,0.0,1.0,-999,-99.99,,,-99.99,,2013-07-07 14:12:00,
2013-07-07 09:11:00,58.0,-99.9,-100.00,SSE,165,1.0,3.0,-999,-99.99,,,-99.99,,2013-07-07 16:11:00,
2013-07-07 11:10:00,77.0,47.0,-100.00,NNW,333,1.0,5.0,34,-99.99,,,-99.99,,2013-07-07 18:10:00,
2013-07-07 11:11:00,73.0,56.0,-100.00,SW,234,1.0,5.0,55,-99.99,,,-99.99,,2013-07-07 18:11:00,
2013-07-07 13:11:00,82.0,45.0,-100.00,North,356,1.0,9.0,27,-99.99,,,-99.99,,2013-07-07 20:11:00,
2013-07-07 15:01:00,83.0,43.0,-100.00,NNE,24,2.0,5.0,24,-99.99,,,-99.99,,2013-07-07 22:01:00,
2013-07-07 17:01:00,78.0,55.0,-100.00,ESE,104,2.0,6.0,45,-99.99,,,-99.99,,2013-07-08 00:01:00,
2013-07-07 17:11:00,78.0,55.0,-100.00,ESE,104,2.0,6.0,45,-99.99,,,-99.99,,2013-07-08 00:11:00,
2013-07-07 20:10:00,62.0,-99.9,-100.00,SE,144,1.0,1.0,-999,-99.99,,,-99.99,,2013-07-08 03:10:00,
2013-07-07 20:12:00,63.0,-99.9,-100.00,South,181,1.0,2.0,-999,-99.99,,,-99.99,,2013-07-08 03:12:00,
2013-07-07 21:02:00,62.0,-99.9,-100.00,SE,144,1.0,1.0,-999,-99.99,,,-99.99,,2013-07-08 04:02:00,
2013-07-07 22:10:00,58.0,-99.9,-100.00,ENE,59,1.0,2.0,-999,-99.99,,,-99.99,,2013-07-08 05:10:00,
2013-07-07 22:12:00,60.0,-99.9,-100.00,ESE,120,1.0,2.0,-999,-99.99,,,-99.99,,2013-07-08 05:12:00,
2013-07-07 23:10:00,56.0,-99.9,-100.00,NE,37,0.0,1.0,-999,-99.99,,,-99.99,,2013-07-08 06:10:00,